Location: Boiro
(42.6475°N, 8.8834°W)
Time: 18:38:20
(UTC+01:00)

Tiros 1 - Pass Details

Date: 06 December 2021
Orbit: 630 x 663 km, 48.4° (Epoch: 20 January)

Event Time Altitude Azimuth Distance (km) Brightness Sun altitude
Rises 20:34:50 0° 262° (W) 2,918 11.8 -27.3°
Reaches altitude 10° 20:37:12 10° 267° (W) 2,015 10.7 -27.7°
Enters shadow 20:40:50 45° 305° (NW) 873 8.0 -28.4°
Maximum altitude 20:41:44 52° 344° (NNW) 791 - -28.6°
Drops below altitude 10° 20:46:19 10° 62° (ENE) 2,039 - -29.4°
Sets 20:48:44 0° 67° (ENE) 2,956 - -29.9°
